FW6512 Weather Reports


Display with metric or nautical units.
time (UTC)temp
F
wind
direction
speed
MPH
gust
MPH
rain 1hr
in
rain 24hr
in
rain mn
in
humidity
%
barometer
mb
20260505111627 55 205 1.0 2.0 0.00 0.00 0.00 90 1012.2
20260505111120 55 191 0.0 1.0 0.00 0.00 0.00 90 1012.2
20260505110613 55 201 0.0 1.0 0.00 0.00 0.00 90 1012.2
20260505110107 55 152 0.0 3.0 0.00 0.00 0.00 90 1012.2
20260505102011 54 226 0.0 3.0 0.00 0.00 0.00 90 1011.9
20260505101505 54 209 2.0 3.0 0.00 0.00 0.00 90 1011.9
20260505100958 54 210 0.0 3.0 0.00 0.00 0.00 90 1011.6
20260505100452 54 190 0.0 2.0 0.00 0.00 0.00 90 1011.6
20260505095944 54 180 0.0 2.0 0.00 0.00 0.00 90 1011.6
20260505095438 54 210 0.0 2.0 0.00 0.00 0.00 90 1011.6
20260505094931 54 197 0.0 2.0 0.00 0.00 0.00 90 1011.6
20260505094424 54 219 1.0 2.0 0.00 0.00 0.00 90 1011.6
20260505094142 54 176 0.0 2.0 0.00 0.00 0.00 90 1011.6
20260505093411 54 180 0.0 2.0 0.00 0.00 0.00 90 1011.6
20260505093103 54 189 0.0 1.0 0.00 0.00 0.00 91 1011.6
20260505092951 54 195 0.0 2.0 0.00 0.00 0.00 90 1011.6
20260505091852 54 195 0.0 2.0 0.00 0.00 0.00 91 1011.2
20260505091344 54 251 1.0 2.0 0.00 0.00 0.00 91 1011.6
20260505090838 54 213 1.0 3.0 0.00 0.00 0.00 92 1011.2
20260505090814 54 183 0.0 3.0 0.00 0.00 0.00 92 1011.2
20260505085825 53 194 0.0 1.0 0.00 0.00 0.00 93 1011.6
20260505085537 53 192 0.0 0.0 0.00 0.00 0.00 93 1011.2
20260505085030 53 194 0.0 0.0 0.00 0.00 0.00 93 1011.2
20260505084305 53 220 0.0 0.0 0.00 0.00 0.00 93 1011.2
20260505083758 53 196 0.0 1.0 0.00 0.00 0.00 93 1011.2
20260505083518 53 194 0.0 1.0 0.00 0.00 0.00 93 1011.6
20260505083008 53 202 0.0 2.0 0.00 0.00 0.00 93 1011.2
20260505082238 53 196 0.0 3.0 0.00 0.00 0.00 92 1011.2
20260505081732 53 216 1.0 4.0 0.00 0.00 0.00 92 1011.6
20260505081225 53 195 0.0 4.0 0.00 0.00 0.00 92 1011.2
20260505080719 53 199 0.0 2.0 0.00 0.00 0.00 92 1011.2
20260505080211 53 200 0.0 2.0 0.00 0.00 0.00 92 1011.2
20260505075705 53 231 1.0 1.0 0.00 0.00 0.00 91 1011.2
20260505075159 54 207 1.0 1.0 0.00 0.00 0.00 91 1011.2
20260505074652 54 194 0.0 1.0 0.00 0.00 0.00 91 1010.9
20260505074146 54 201 0.0 1.0 0.00 0.00 0.00 91 1011.2
20260505073638 54 149 0.0 1.0 0.00 0.00 0.00 91 1010.9
20260505073132 54 200 0.0 2.0 0.00 0.00 0.00 90 1010.9
20260505072625 54 191 0.0 2.0 0.00 0.00 0.00 90 1010.9
20260505072118 54 191 1.0 2.0 0.00 0.00 0.00 90 1010.9
20260505071611 54 188 0.0 2.0 0.00 0.00 0.00 90 1010.5
20260505071325 54 201 1.0 2.0 0.00 0.00 0.00 90 1010.5
20260505070559 55 195 0.0 3.0 0.00 0.00 0.00 90 1010.5
20260505070317 55 221 2.0 3.0 0.00 0.00 0.00 89 1010.9
20260505065545 55 208 1.0 3.0 0.00 0.00 0.00 89 1010.5
20260505065038 55 215 1.0 3.0 0.00 0.00 0.00 89 1010.5
20260505064531 55 184 1.0 4.0 0.00 0.00 0.00 89 1010.2
20260505064245 55 217 1.0 6.0 0.00 0.00 0.00 89 1010.2
20260505063744 55 214 1.0 1.0 0.00 0.00 0.00 89 1010.2
20260505063012 55 203 0.0 3.0 0.00 0.00 0.00 89 1009.9
20260505062505 55 199 0.0 3.0 0.00 0.00 0.00 88 1010.2
20260505061959 55 216 0.0 3.0 0.00 0.00 0.00 88 1010.2
20260505061712 55 232 1.0 3.0 0.00 0.00 0.00 88 1010.2
20260505060945 55 197 0.0 3.0 0.00 0.00 0.00 88 1009.9
20260505060438 55 211 1.0 3.0 0.00 0.00 0.00 88 1009.9
20260505055931 55 190 0.0 7.0 0.00 0.00 0.00 87 1009.9
20260505055649 56 229 1.0 7.0 0.00 0.00 0.00 87 1009.9
20260505054918 56 208 0.0 4.0 0.00 0.00 0.00 87 1009.9
20260505054412 56 214 1.0 4.0 0.00 0.00 0.00 86 1009.9
20260505053905 56 197 0.0 4.0 0.00 0.00 0.00 86 1009.9
20260505053358 56 218 2.0 4.0 0.00 0.00 0.00 86 1009.5
20260505052852 56 205 0.0 4.0 0.00 0.00 0.00 86 1009.5
20260505052345 56 215 1.0 3.0 0.00 0.00 0.00 85 1009.5
20260505051838 56 213 0.0 3.0 0.00 0.00 0.00 85 1009.5
20260505051332 56 207 1.0 4.0 0.00 0.00 0.00 85 1009.5
20260505050825 57 192 0.0 4.0 0.00 0.00 0.00 84 1009.5
20260505050318 57 210 1.0 3.0 0.00 0.00 0.00 84 1009.5
20260505041718 61 230 1.0 8.0 0.00 0.00 0.00 76 1009.2
20260505041212 61 118 1.0 8.0 0.00 0.00 0.00 76 1008.9
20260505040705 62 193 0.0 3.0 0.00 0.00 0.00 75 1008.9
20260505040158 62 196 2.0 3.0 0.00 0.00 0.00 74 1008.9
20260505035652 62 209 0.0 3.0 0.00 0.00 0.00 73 1008.5
20260505035145 62 220 3.0 3.0 0.00 0.00 0.00 73 1008.9
20260505034638 63 205 0.0 3.0 0.00 0.00 0.00 72 1008.5
20260505034131 63 209 0.0 2.0 0.00 0.00 0.00 72 1008.5
20260505033624 63 195 1.0 2.0 0.00 0.00 0.00 71 1008.2
20260505033118 64 220 0.0 3.0 0.00 0.00 0.00 70 1008.2
20260505032612 64 214 0.0 3.0 0.00 0.00 0.00 69 1008.2
20260505032104 64 205 1.0 2.0 0.00 0.00 0.00 69 1008.2
20260505031558 65 201 1.0 4.0 0.00 0.00 0.00 68 1008.2
20260505031051 65 203 1.0 4.0 0.00 0.00 0.00 67 1008.2
20260505030544 66 207 2.0 3.0 0.00 0.00 0.00 66 1007.8
20260505030038 67 225 0.0 3.0 0.00 0.00 0.00 65 1007.8
20260505025531 67 213 0.0 2.0 0.00 0.00 0.00 65 1007.8
20260505025024 68 207 1.0 4.0 0.00 0.00 0.00 64 1007.8
20260505024517 68 209 2.0 4.0 0.00 0.00 0.00 63 1007.8
20260505024011 69 226 1.0 4.0 0.00 0.00 0.00 62 1007.8
20260505023722 70 19 1.0 3.0 0.00 0.00 0.00 61 1007.5
20260505023307 70 206 0.0 3.0 0.00 0.00 0.00 60 1007.5
20260505023205 70 200 0.0 3.0 0.00 0.00 0.00 60 1007.5
20260505021944 70 219 2.0 7.0 0.00 0.00 0.00 59 1007.5
20260505021657 70 182 0.0 7.0 0.00 0.00 0.00 59 1007.5
20260505020930 71 211 0.0 2.0 0.00 0.00 0.00 58 1007.5
20260505020645 72 217 0.0 4.0 0.00 0.00 0.00 57 1007.5
20260505015918 72 184 3.0 4.0 0.00 0.00 0.00 57 1007.5
20260505015633 73 281 1.0 6.0 0.00 0.00 0.00 56 1007.5
20260505014904 73 204 0.0 6.0 0.00 0.00 0.00 56 1007.5
20260505014624 73 236 1.0 4.0 0.00 0.00 0.00 56 1007.5
20260505013851 74 217 1.0 6.0 0.00 0.00 0.00 54 1007.5
20260505013345 75 215 2.0 6.0 0.00 0.00 0.00 54 1007.2
20260505013318 75 200 1.0 3.0 0.00 0.00 0.00 54 1007.5
20260505012331 76 210 2.0 4.0 0.00 0.00 0.00 52 1007.5
20260505011824 78 198 2.0 4.0 0.00 0.00 0.00 52 1007.5
20260505011318 78 209 2.0 4.0 0.00 0.00 0.00 51 1007.2
20260505010812 78 205 0.0 4.0 0.00 0.00 0.00 49 1007.8
20260505010750 79 214 1.0 3.0 0.00 0.00 0.00 49 1007.5
20260505005757 79 234 2.0 3.0 0.00 0.00 0.00 49 1007.5
20260505005249 78 208 0.0 4.0 0.00 0.00 0.00 50 1007.5
20260505005008 78 220 1.0 4.0 0.00 0.00 0.00 50 1007.8
20260505004459 79 215 2.0 6.0 0.00 0.00 0.00 49 1007.5
20260505003730 79 221 1.0 6.0 0.00 0.00 0.00 48 1007.5
20260505003223 80 285 1.0 6.0 0.00 0.00 0.00 47 1007.5
20260505002716 80 206 2.0 7.0 0.00 0.00 0.00 48 1007.5
20260505002210 80 213 1.0 7.0 0.00 0.00 0.00 48 1007.5
20260505001704 80 220 2.0 4.0 0.00 0.00 0.00 47 1007.5
20260505001156 80 219 1.0 4.0 0.00 0.00 0.00 48 1007.5
20260505000909 80 297 2.0 3.0 0.00 0.00 0.00 47 1007.5
20260505000143 80 204 1.0 6.0 0.00 0.00 0.00 47 1007.2
20260504235636 80 206 4.0 6.0 0.00 0.00 0.00 46 1007.5
20260504235130 80 214 1.0 4.0 0.00 0.00 0.00 49 1007.8
20260504234623 80 206 0.0 6.0 0.00 0.00 0.00 47 1007.5
20260504234117 81 205 0.0 6.0 0.00 0.00 0.00 47 1007.5
20260504233609 80 191 1.0 4.0 0.00 0.00 0.00 47 1007.5
20260504233103 80 218 1.0 6.0 0.00 0.00 0.00 47 1007.5
20260504232825 80 242 1.0 6.0 0.00 0.00 0.00 48 1007.5
20260504232050 81 236 2.0 3.0 0.00 0.00 0.00 47 1007.5
20260504231543 79 206 0.0 6.0 0.00 0.00 0.00 46 1007.5
20260504231036 80 258 1.0 6.0 0.00 0.00 0.00 47 1007.5
20260504230529 80 194 2.0 6.0 0.00 0.00 0.00 47 1007.8
20260504230023 80 209 4.0 6.0 0.00 0.00 0.00 47 1007.8
20260504225515 80 283 1.0 4.0 0.00 0.00 0.00 47 1007.8
20260504225009 81 224 2.0 4.0 0.00 0.00 0.00 45 1007.8
20260504224503 81 215 1.0 3.0 0.00 0.00 0.00 43 1007.8
20260504223956 82 199 0.0 3.0 0.00 0.00 0.00 45 1007.8
20260504223930 82 222 1.0 3.0 0.00 0.00 0.00 43 1008.2
20260504222942 82 205 1.0 4.0 0.00 0.00 0.00 43 1007.8
20260504222435 79 235 1.0 4.0 0.00 0.00 0.00 43 1008.2
20260504221928 81 330 2.0 4.0 0.00 0.00 0.00 44 1008.2
20260504221422 80 218 1.0 4.0 0.00 0.00 0.00 45 1008.2
20260504221136 79 206 2.0 4.0 0.00 0.00 0.00 48 1008.2
20260504220408 80 190 1.0 3.0 0.00 0.00 0.00 48 1008.2
20260504215902 80 206 1.0 4.0 0.00 0.00 0.00 45 1008.2
20260504215355 79 271 3.0 6.0 0.00 0.00 0.00 46 1008.5
20260504215118 80 179 1.0 6.0 0.00 0.00 0.00 47 1008.2
20260504214341 79 147 0.0 6.0 0.00 0.00 0.00 46 1008.5
20260504213835 79 221 2.0 6.0 0.00 0.00 0.00 48 1008.5
20260504213552 79 213 2.0 4.0 0.00 0.00 0.00 46 1008.5
20260504212821 80 222 1.0 3.0 0.00 0.00 0.00 46 1008.5
20260504212314 80 214 1.0 3.0 0.00 0.00 0.00 46 1008.5
20260504212025 79 191 1.0 6.0 0.00 0.00 0.00 47 1008.5
20260504211525 79 217 0.0 6.0 0.00 0.00 0.00 47 1008.5
20260504210755 79 181 0.0 4.0 0.00 0.00 0.00 48 1008.5
20260504210248 80 218 2.0 6.0 0.00 0.00 0.00 46 1008.5
20260504205741 79 224 0.0 6.0 0.00 0.00 0.00 47 1008.5
20260504205234 79 214 0.0 4.0 0.00 0.00 0.00 46 1008.5
20260504204727 78 208 1.0 4.0 0.00 0.00 0.00 47 1008.5
20260504204221 78 204 1.0 4.0 0.00 0.00 0.00 46 1008.5
20260504203714 78 213 0.0 4.0 0.00 0.00 0.00 48 1008.5
20260504203208 78 235 0.0 4.0 0.00 0.00 0.00 46 1008.2
20260504202701 78 207 2.0 7.0 0.00 0.00 0.00 46 1008.9
20260504202420 78 227 3.0 4.0 0.00 0.00 0.00 46 1008.5
20260504201647 78 200 0.0 3.0 0.00 0.00 0.00 45 1008.5
20260504201142 78 292 2.0 3.0 0.00 0.00 0.00 46 1008.9
20260504200635 78 205 1.0 3.0 0.00 0.00 0.00 47 1008.9
20260504200127 77 220 1.0 3.0 0.00 0.00 0.00 46 1008.5
20260504195619 77 174 0.0 3.0 0.00 0.00 0.00 46 1008.9
20260504195112 77 196 1.0 3.0 0.00 0.00 0.00 46 1008.5
20260504194605 77 186 2.0 3.0 0.00 0.00 0.00 49 1008.9
20260504194058 77 202 0.0 2.0 0.00 0.00 0.00 46 1008.9
20260504193552 76 200 1.0 6.0 0.00 0.00 0.00 47 1008.9
20260504193045 75 199 1.0 6.0 0.00 0.00 0.00 49 1008.9
20260504192538 76 201 1.0 3.0 0.00 0.00 0.00 48 1008.9
20260504192257 75 265 0.0 4.0 0.00 0.00 0.00 51 1008.9
20260504191749 74 156 0.0 6.0 0.00 0.00 0.00 50 1008.9
20260504191019 74 207 2.0 6.0 0.00 0.00 0.00 53 1008.9
20260504190512 75 219 1.0 3.0 0.00 0.00 0.00 50 1009.2
20260504190005 74 246 1.0 3.0 0.00 0.00 0.00 51 1009.2
20260504185458 73 189 1.0 4.0 0.00 0.00 0.00 53 1009.2
20260504184951 73 210 1.0 4.0 0.00 0.00 0.00 52 1009.2
20260504184444 73 223 2.0 3.0 0.00 0.00 0.00 53 1009.2
20260504183937 74 201 1.0 3.0 0.00 0.00 0.00 52 1009.2
20260504183918 73 218 1.0 3.0 0.00 0.00 0.00 51 1009.5
20260504182924 73 207 0.0 4.0 0.00 0.00 0.00 54 1009.5
20260504182418 72 196 1.0 4.0 0.00 0.00 0.00 55 1009.5
20260504181911 73 256 0.0 3.0 0.00 0.00 0.00 55 1009.5
20260504181404 73 348 1.0 2.0 0.00 0.00 0.00 53 1009.5
20260504181122 73 230 1.0 3.0 0.00 0.00 0.00 53 1009.5
20260504180352 72 198 1.0 2.0 0.00 0.00 0.00 54 1009.5
20260504175845 71 228 1.0 2.0 0.00 0.00 0.00 57 1009.2
20260504175338 71 200 0.0 3.0 0.00 0.00 0.00 54 1009.5
20260504174831 70 94 1.0 6.0 0.00 0.00 0.00 57 1009.2
20260504174324 69 245 1.0 6.0 0.00 0.00 0.00 59 1009.5
20260504173818 71 163 1.0 3.0 0.00 0.00 0.00 55 1009.2
20260504173311 71 200 1.0 3.0 0.00 0.00 0.00 55 1009.5
20260504172804 71 212 1.0 3.0 0.00 0.00 0.00 58 1009.2
20260504172258 71 210 2.0 3.0 0.00 0.00 0.00 58 1009.2
20260504172020 69 210 0.0 4.0 0.00 0.00 0.00 59 1009.2
20260504171244 68 188 0.0 4.0 0.00 0.00 0.00 60 1009.2
20260504170737 69 181 0.0 3.0 0.00 0.00 0.00 60 1009.2
20260504170231 69 107 1.0 4.0 0.00 0.00 0.00 62 1009.2
20260504160110 64 197 0.0 4.0 0.00 0.00 0.00 67 1009.2
20260504151003 62 201 0.0 2.0 0.00 0.00 0.00 73 1008.9
20260504150456 61 203 0.0 2.0 0.00 0.00 0.00 74 1008.5
20260504150218 61 192 0.0 2.0 0.00 0.00 0.00 76 1008.9
20260504141107 56 194 0.0 0.0 0.00 0.00 0.00 90 1008.2
20260504140335 55 193 0.0 0.0 0.00 0.00 0.00 91 1007.8
20260504130722 52 180 0.0 0.0 0.00 0.00 0.00 94 1007.8
20260504130215 53 194 0.0 0.0 0.00 0.00 0.00 94 1007.8